sat.trackr.live / text

‹ back to catalog

STARLINK-34041

NORAD 63844 · 2025-093J

PAYLOAD ACTIVE UNKNOWN

§ Identity

Operator
Country
US
Launch date
2025-05-07
Launch site
AFETR
Launch vehicle
Mass (kg)
RCS (m²)

Purposes: comms

External: N2YO · Heavens-Above · Gunter

§ Orbital elements

Epoch: 2026-05-25T00:39:51.279840Z

Period
94.27 min
Inclination
43.0005°
Eccentricity
0.0001798
Mean motion
15.27602072 rev/d
Perigee alt
481.7 km
Apogee alt
484.2 km
Semi-major
6,861.1 km
B*
5.2007e-4
RAAN
7.0812°
Arg perigee
268.4504°
Mean anomaly
91.6141°
Rev number
5,964

§ Raw data

STARLINK-340411 63844U 25093J   26145.02767685  .00014086  00000+0  52007-3 0  99982 63844  43.0005   7.0812 0001798 268.4504  91.6141 15.27602072 59649

JSON: /api/v1/satellites/63844 · /tle

For live sub-satellite position, see the globe view (requires WebGL).

§ Visibility from observer

Set your observer location to see the next 7 days of passes ≥ 10°. The values pass through the URL so the page stays shareable.

No JS? Fill the form by hand. The geolocation button needs JavaScript.